www.pogodaiklimat.ru

Погода и климат >> Архив погоды >> Венгрия >> Байя


ПОГОДА в Байе

  • Прогноз погоды в Байе
  • Монитор погоды в Байе

АРХИВ ПОГОДЫ в Байе

Время (UTC), дата Ветер
(напр.,м/с)
 
Видим.   Явления Облачность Т
(С)
Тd
(С)
f
(%)
Тe
(С)
Тes
(С)
Комфортность P
(гПа)
Po
(гПа)
Тmin
(С)
Tmax
(С)
R
(мм)
R24
(мм)
S
(см)
16 18.06 СВ 1
{7}
н/о н/о +24.1 +18.7 72 +29 +29 душно 1014.6 1001.6
17 18.06 ЮВ 1 н/о н/о +24.2 +19.1 73 +29 +29 душно 1014.3 1001.3
18 18.06 штиль 0 н/о н/о +22.8 +19.0 79 +29 +29 очень
душно
1014.6 1001.6 +28.7
19 18.06 штиль 0 н/о н/о +20.5 +18.6 89 +24 +24 комфорт 1014.9 1001.8
20 18.06 штиль 0 н/о н/о +19.6 +18.6 94 +22 +22 комфорт 1015.1 1001.9
21 18.06 штиль 0 н/о н/о +18.7 +18.0 96 +20 +20 1015.5 1002.3
22 18.06 штиль 0 н/о н/о +18.3 +17.8 97 +19 +19 1015.3 1002.1
23 18.06 штиль 0 н/о н/о +18.2 +17.9 98 +19 +19 1015.3 1002.1
00 19.06 штиль 0 н/о н/о +18.0 +17.7 98 +18 +18 1014.6 1001.4
01 19.06 штиль 0 н/о н/о +17.5 +17.2 98 +17 +17 1013.8 1000.5
02 19.06 штиль 0 н/о н/о +17.1 +16.8 98 +17 +17 1014.2 1000.9
03 19.06 штиль 0 н/о н/о +17.4 +17.2 99 +17 +17 1014.0 1000.7
04 19.06 штиль 0 н/о н/о +18.2 +18.0 99 +19 +19 1014.1 1000.9
05 19.06 штиль 0 н/о н/о +20.3 +19.6 96 +24 +24 комфорт 1014.4 1001.3
06 19.06 штиль 0 н/о н/о +21.6 +19.7 89 +27 +27 душно 1014.5 1001.4 +17.0
07 19.06 штиль 0 н/о н/о +24.4 +20.3 78 +30 +30 очень
душно
1014.3 1001.3
08 19.06 ЮВ 1 н/о н/о +24.4 +19.0 72 +29 +29 душно 1014.1 1001.1
09 19.06 Ю 2 н/о н/о +24.1 +18.7 72 +29 +29 душно 1014.1 1001.1
10 19.06 Ю 1 н/о н/о +24.0 +18.4 71 +28 +28 душно 1014.0 1001.0
11 19.06 Ю 1 н/о н/о +26.1 +19.0 65 +31 +31 очень
душно
1013.3 1000.4
12 19.06 Ю 2 н/о н/о +27.7 +19.0 59 +33 +33 очень
душно
1012.4 999.6
13 19.06 ЮЗ 1 н/о н/о +28.9 +19.8 58 +35 +35 очень
душно
1011.9 999.2
14 19.06 Ю 1 н/о н/о +28.7 +19.3 57 +34 +34 очень
душно
1011.2 998.5
15 19.06 Ю 1 н/о н/о +28.8 +19.4 57 +35 +35 очень
душно
1010.4 997.7
16 19.06 З 1 н/о н/о +28.4 +19.1 57 +34 +34 очень
душно
1010.1 997.4
17 19.06 штиль 0 н/о н/о +28.1 +19.1 58 +33 +33 очень
душно
1010.4 997.6
18 19.06 С 1 н/о н/о +26.2 +19.6 67 +32 +32 очень
душно
1011.0 998.2 +29.7
19 19.06 СВ 1 н/о н/о +22.3 +17.9 76 +27 +27 душно 1011.8 998.8
20 19.06 штиль 0 н/о н/о +20.3 +17.7 85 +23 +23 комфорт 1012.0 998.9
21 19.06 штиль 0 н/о н/о +20.4 +17.8 85 +24 +24 комфорт 1011.9 998.8
22 19.06 штиль 0 н/о н/о +20.3 +17.9 86 +23 +23 комфорт 1011.5 998.4
23 19.06 штиль 0 н/о н/о +19.5 +18.0 91 +22 +22 комфорт 1012.4 999.2
00 20.06 Ю 1 н/о н/о +19.8 +19.0 95 +24 +24 комфорт 1012.2 999.1
01 20.06 штиль 0 н/о н/о +19.6 +18.8 95 +22 +22 комфорт 1011.0 997.9
02 20.06 штиль 0 н/о н/о +18.8 +18.1 96 +20 +20 1011.4 998.2
03 20.06 штиль 0 н/о н/о +18.1 +17.8 98 +18 +18 1011.4 998.2
04 20.06 штиль 0 н/о н/о +18.5 +18.2 98 +19 +19 1011.8 998.6
05 20.06 штиль 0 н/о н/о +18.8 +18.5 98 +20 +20 1012.2 999.0
06 20.06 штиль 0 н/о н/о +21.1 +19.6 91 +26 +26 душно 1012.4 999.3 +17.9 0.1
07 20.06 В 1 н/о н/о +24.5 +20.0 76 +30 +30 очень
душно
1012.2 999.3
08 20.06 З 1 н/о н/о +25.7 +20.5 73 +32 +32 очень
душно
1012.4 999.5
09 20.06 С 1 н/о н/о +25.7 +19.8 70 +31 +31 очень
душно
1012.6 999.7
10 20.06 штиль 0 н/о н/о +27.2 +17.7 56 +31 +31 душно 1012.4 999.6
11 20.06 штиль 0 н/о н/о +27.8 +17.9 55 +32 +32 душно 1012.1 999.3
12 20.06 З 1 н/о н/о +28.6 +18.7 55 +34 +34 очень
душно
1011.6 998.9
13 20.06 СЗ 1 н/о н/о +30.0 +20.0 55 +36 +36 очень
душно
1010.9 998.2
14 20.06 СЗ 1 н/о н/о +29.2 +18.6 53 +34 +34 очень
душно
1010.4 997.7
15 20.06 С 1 н/о н/о +28.8 +18.9 55 +34 +34 очень
душно
1010.6 997.9
16 20.06 ЮЗ 1 н/о н/о +28.1 +18.5 56 +33 +33 очень
душно
1010.9 998.1
17 20.06 ЮВ 2 н/о н/о +24.6 +17.6 65 +29 +29 душно 1011.6 998.7
18 20.06 штиль 0 н/о н/о +23.7 +18.8 74 +28 +28 душно 1011.7 998.7 +30.1
19 20.06 штиль 0 н/о н/о +21.7 +18.9 84 +27 +27 душно 1011.9 998.9
20 20.06 штиль 0 н/о н/о +20.3 +19.3 94 +24 +24 комфорт 1013.0 999.9
21 20.06 штиль 0 н/о н/о +19.4 +18.7 96 +22 +22 комфорт 1013.1 999.9
22 20.06 штиль 0 н/о н/о +18.6 +17.9 96 +20 +20 1013.2 1000.0
23 20.06 штиль 0 н/о н/о +17.8 +17.3 97 +18 +18 1013.2 1000.0
00 21.06 штиль 0 н/о н/о +17.2 +16.9 98 +17 +17 1013.3 1000.0
01 21.06 штиль 0 н/о н/о +16.8 +16.5 98 +17 +17 1013.5 1000.2
02 21.06 штиль 0 н/о н/о +16.7 +16.4 98 +17 +17 1013.7 1000.4
03 21.06 штиль 0 н/о н/о +16.7 +16.4 98 +17 +17 1014.2 1000.9
04 21.06 штиль 0 н/о н/о +17.8 +17.6 99 +18 +18 1014.7 1001.4
05 21.06 СЗ 2 н/о н/о +20.1 +18.6 91 +24 +24 комфорт 1014.9 1001.7
06 21.06 С 2
{7}
н/о н/о +21.8 +18.0 79 +26 +26 душно 1015.4 1002.3 +16.6
07 21.06 С 2 н/о н/о +24.1 +19.0 73 +29 +29 душно 1015.6 1002.6
08 21.06 С 3 н/о н/о +25.3 +18.7 67 +30 +30 душно 1015.5 1002.6
09 21.06 н/о н/о +27.1 +19.2 62 1015.7 1002.8
10 21.06 З 1 н/о н/о +28.4 +19.9 60 +35 +35 очень
душно
1015.5 1002.7
11 21.06 СЗ 1 н/о н/о +28.8 +20.0 59 +35 +35 очень
душно
1015.1 1002.3
12 21.06 СЗ 1 н/о н/о +29.7 +19.4 54 +35 +35 очень
душно
1014.5 1001.8
13 21.06 СЗ 1 н/о н/о +28.3 +19.2 58 +34 +34 очень
душно
1014.2 1001.4
14 21.06 ЮЗ 2
{7}
н/о н/о +22.7 +15.3 63 +27 +27 душно 1015.1 1002.1
15 21.06 штиль 0 н/о н/о +21.7 +15.5 68 +25 +25 комфорт 1015.0 1001.9
16 21.06 З 1 н/о н/о +25.9 +18.3 63 +31 +31 очень
душно
1014.4 1001.5
17 21.06 штиль 0 н/о н/о +25.2 +19.6 71 +31 +31 очень
душно
1014.7 1001.8
18 21.06 штиль 0 н/о н/о +24.0 +18.4 71 +28 +28 душно 1015.1 1002.1 +30.8
19 21.06 штиль 0 н/о н/о +21.0 +18.4 85 +25 +25 комфорт 1015.4 1002.3
20 21.06 штиль 0 н/о н/о +19.9 +18.2 90 +23 +23 комфорт 1016.2 1003.0
21 21.06 штиль 0 н/о н/о +18.9 +17.9 94 +20 +20 1016.1 1002.9
22 21.06 штиль 0 н/о н/о +18.1 +17.5 96 +18 +18 1016.5 1003.2
23 21.06 штиль 0 н/о н/о +18.6 +18.1 97 +20 +20 1016.4 1003.2
00 22.06 штиль 0 н/о н/о +18.5 +18.0 97 +19 +19 1016.5 1003.3
01 22.06 штиль 0 н/о н/о +17.6 +17.3 98 +18 +18 1016.7 1003.4
02 22.06 штиль 0 н/о н/о +16.8 +16.5 98 +17 +17 1016.6 1003.3
03 22.06 штиль 0 н/о н/о +16.0 +15.7 98 +16 +16 1016.8 1003.4
04 22.06 штиль 0 н/о н/о +16.4 +16.1 98 +16 +16 1017.2 1003.8
05 22.06 штиль 0 н/о н/о +19.8 +19.5 98 +23 +23 комфорт 1016.8 1003.6
06 22.06 штиль 0 н/о н/о +23.5 +19.0 76 +28 +28 душно 1016.8 1003.8 +15.7
07 22.06 С 1 н/о н/о +26.3 +17.9 60 +31 +31 душно 1017.0 1004.1
08 22.06 С 1 н/о н/о +28.0 +18.1 55 +33 +33 очень
душно
1016.9 1004.1
09 22.06 штиль 0 н/о н/о +28.3 +17.8 53 +33 +33 очень
душно
1017.3 1004.5
10 22.06 штиль 0 н/о н/о +28.7 +18.5 54 +34 +34 очень
душно
1017.0 1004.2
11 22.06 штиль 0 н/о н/о +29.6 +18.4 51 +34 +34 очень
душно
1016.6 1003.8
12 22.06 СВ 1 н/о н/о +30.7 +18.1 47 +35 +35 очень
душно
1015.6 1002.9
13 22.06 ЮВ 1 н/о н/о +30.3 +16.7 44 +34 +34 очень
душно
1015.0 1002.3
14 22.06 ЮВ 2 н/о н/о +30.1 +17.6 47 +34 +34 очень
душно
1014.2 1001.5
15 22.06 ЮВ 1 н/о н/о +29.9 +17.7 48 +34 +34 очень
душно
1013.6 1000.9
16 22.06 штиль 0 н/о н/о +28.2 +19.4 59 +34 +34 очень
душно
1013.6 1000.8
17 22.06 штиль 0 н/о н/о +26.2 +20.8 72 +33 +33 очень
душно
1013.3 1000.4
18 22.06 штиль 0 н/о н/о +24.7 +20.4 77 +31 +31 очень
душно
1013.1 1000.2 +31.1
19 22.06 З 2
{11}
н/о н/о +18.6 +18.1 97 +20 +20 1015.7 1002.5
20 22.06 штиль 0 н/о н/о +18.7 +18.5 99 +20 +20 1014.8 1001.6
21 22.06 С 2 н/о н/о +18.5 +18.3 99 +20 +20 1014.0 1000.8
22 22.06 ЮЗ 1 н/о н/о +18.4 +18.2 99 +20 +20 1015.7 1002.5
23 22.06 Ю 1 н/о н/о +18.3 +18.1 99 +20 +20 1015.1 1001.9
00 23.06 штиль 0 н/о н/о +18.1 +17.9 99 +18 +18 1014.4 1001.2 19
01 23.06 штиль 0 н/о н/о +17.9 +17.7 99 +18 +18 1014.0 1000.8
02 23.06 штиль 0 н/о н/о +17.8 +17.6 99 +18 +18 1014.7 1001.4
03 23.06 штиль 0 н/о н/о +18.1 +17.9 99 +18 +18 1014.4 1001.2
04 23.06 штиль 0 н/о н/о +18.0 +17.8 99 +18 +18 1014.0 1000.8
05 23.06 СЗ 1 н/о н/о +18.4 +18.2 99 +20 +20 1014.4 1001.2
06 23.06 С 1 н/о н/о +19.0 +18.8 99 +22 +22 комфорт 1014.2 1001.0 +17.5 19
07 23.06 штиль 0 н/о н/о +18.9 +18.6 98 +20 +20 1015.8 1002.6
08 23.06 С 1 н/о н/о +18.8 +18.5 98 +21 +21 комфорт 1015.2 1002.0
09 23.06 СЗ 1 н/о н/о +18.9 +18.7 99 +22 +22 комфорт 1015.0 1001.8
10 23.06 З 1 н/о н/о +18.8 +18.6 99 +21 +21 комфорт 1016.5 1003.3
11 23.06 штиль 0 н/о н/о +19.3 +19.1 99 +21 +21 комфорт 1014.7 1001.5
12 23.06 С 1 н/о н/о +20.8 +20.3 97 +27 +27 душно 1014.5 1001.4 14
13 23.06 штиль 0 н/о н/о +22.4 +19.6 84 +28 +28 душно 1015.0 1001.9
14 23.06 СЗ 1 н/о н/о +22.7 +19.5 82 +29 +29 очень
душно
1014.1 1001.1
15 23.06 СЗ 1 н/о н/о +23.4 +19.6 79 +30 +30 очень
душно
1014.3 1001.3
16 23.06 СЗ 1 н/о н/о +22.3 +19.3 83 +28 +28 душно 1014.1 1001.1
17 23.06 штиль 0 н/о н/о +21.6 +19.7 89 +27 +27 душно 1014.1 1001.0
18 23.06 штиль 0 н/о н/о +21.3 +19.4 89 +26 +26 душно 1014.6 1001.5 +24.2 14
19 23.06 штиль 0 н/о н/о +19.9 +19.1 95 +23 +23 комфорт 1014.9 1001.7
20 23.06 СЗ 1 н/о н/о +20.2 +19.0 93 +25 +25 комфорт 1014.9 1001.7
21 23.06 С 1 н/о н/о +20.2 +18.9 92 +25 +25 комфорт 1015.2 1002.0
22 23.06 С 1 н/о н/о +19.9 +19.1 95 +24 +24 комфорт 1015.7 1002.5
23 23.06 С 1 н/о н/о +19.9 +18.9 94 +24 +24 комфорт 1016.1 1002.9
00 24.06 СЗ 1 н/о н/о +19.4 +18.7 96 +23 +23 комфорт 1015.7 1002.5
01 24.06 С 2 н/о н/о +19.2 +17.9 92 +22 +22 комфорт 1016.3 1003.1
02 24.06 С 1 н/о н/о +19.2 +18.2 94 +22 +22 комфорт 1016.3 1003.1
03 24.06 С 2 н/о н/о +19.3 +18.5 95 +22 +22 комфорт 1016.1 1002.9
04 24.06 С 3 н/о н/о +19.1 +17.8 92 +21 +21 комфорт 1016.3 1003.1
05 24.06 С 2 н/о н/о +19.1 +17.8 92 +21 +21 комфорт 1016.7 1003.5
06 24.06 С 2 н/о н/о +20.4 +18.0 86 +24 +24 комфорт 1016.8 1003.6 +19.0
07 24.06 С 2 н/о н/о +21.7 +18.3 81 +26 +26 душно 1017.3 1004.2
08 24.06 СВ 1 н/о н/о +22.0 +18.6 81 +27 +27 душно 1017.7 1004.6
09 24.06 С 2 н/о н/о +23.3 +18.6 75 +29 +29 душно 1017.8 1004.7
10 24.06 С 1 н/о н/о +22.0 +20.1 89 +28 +28 душно 1018.3 1005.2
11 24.06 штиль 0 н/о н/о +22.2 +21.2 94 +29 +29 очень
душно
1018.4 1005.3
12 24.06 С 1 н/о н/о +24.1 +20.6 81 +30 +30 очень
душно
1018.3 1005.3 2
13 24.06 СВ 1 н/о н/о +25.3 +21.0 77 +32 +32 очень
душно
1018.1 1005.1
14 24.06 СВ 1 н/о н/о +26.9 +20.5 68 +33 +33 очень
душно
1017.9 1005.0
15 24.06 СВ 1 н/о н/о +27.3 +20.1 65 +34 +34 очень
душно
1017.8 1004.9
16 24.06 С 1 н/о н/о +26.1 +19.0 65 +31 +31 очень
душно
1018.0 1005.1
17 24.06 штиль 0 н/о н/о +24.8 +20.1 75 +30 +30 душно 1018.7 1005.7
18 24.06 штиль 0 н/о н/о +22.9 +19.9 83 +30 +30 очень
душно
1019.4 1006.3 +27.5 2
19 24.06 штиль 0 н/о н/о +20.9 +19.6 92 +25 +25 комфорт 1019.7 1006.5
20 24.06 штиль 0 н/о н/о +19.5 +18.7 95 +22 +22 комфорт 1020.7 1007.4
21 24.06 штиль 0 н/о н/о +19.2 +18.7 97 +21 +21 комфорт 1021.1 1007.8
22 24.06 штиль 0 н/о н/о +18.5 +18.2 98 +19 +19 1021.1 1007.8
23 24.06 штиль 0 н/о н/о +17.8 +17.5 98 +18 +18 1021.3 1008.0
00 25.06 штиль 0 н/о н/о +17.4 +17.1 98 +17 +17 1021.3 1007.9
01 25.06 штиль 0 н/о н/о +17.5 +17.2 98 +17 +17 1021.5 1008.1
02 25.06 штиль 0 н/о н/о +18.4 +18.2 99 +19 +19 1021.1 1007.8
03 25.06 штиль 0 н/о н/о +18.4 +18.2 99 +19 +19 1021.1 1007.8
04 25.06 штиль 0 н/о н/о +18.5 +18.3 99 +19 +19 1021.3 1008.0
05 25.06 штиль 0 н/о н/о +19.6 +19.3 98 +22 +22 комфорт 1021.6 1008.3
06 25.06 С 1 н/о н/о +21.3 +19.2 88 +26 +26 душно 1022.0 1008.8 +17.4
07 25.06 СВ 1 н/о н/о +23.3 +19.7 80 +30 +30 очень
душно
1022.4 1009.3
08 25.06 СЗ 1 н/о н/о +25.4 +20.4 74 +31 +31 очень
душно
1022.7 1009.7
09 25.06 СЗ 1 н/о н/о +27.0 +20.8 69 +34 +34 очень
душно
1022.6 1009.6
10 25.06 С 1 н/о н/о +28.4 +21.4 66 +36 +36 очень
душно
1022.5 1009.6
11 25.06 В 1 н/о н/о +29.8 +21.7 62 +38 +38 очень
душно
1022.5 1009.7
12 25.06 СВ 1 н/о н/о +30.0 +21.7 61 +38 +38 очень
душно
1022.6 1009.8
13 25.06 штиль 0 н/о н/о +30.1 +21.8 61 +38 +38 очень
душно
1022.4 1009.6
14 25.06 штиль 0 н/о н/о +30.9 +22.0 59 +40 +40 очень
душно
1022.3 1009.5
15 25.06 штиль 0 н/о н/о +30.8 +21.0 56 +38 +38 очень
душно
1022.3 1009.5

 

Местоположение метеостанции Байя (Венгрия): широта 46.18 долгота 19.02 высота над уровнем моря 113 м.

В архиве по умолчанию представлена погода в Байе за последнюю неделю. Архивные данные за месяц целиком и за предыдущие месяцы, начиная с января 2011 года, Вы можете получить, выбрав интересующий диапазон дат из раскрывающегося списка и нажав кнопку "Ввод!".


*Определитесь, кто Вы:
робот инопланетянин человек

Внимание! Время в таблицах - всемирное. Для получения местного времени необходимо прибавить поправку, которая равна 1 ч.

Смотрите также архив погоды в соседних городах и на ближайших метеорологических станциях:

Погода в Пакше (Венгрия) (46 км)
Погода в Сомборе (Сербия) (47 км)
Погода в Паличе (Сербия) (58 км)
Погода в Пече (Венгрия) (64 км)
Погода в Осиек аэропорту (Хорватия) (80 км)
Погода в Осиек-Чепине (Хорватия) (83 км)
Погода в Сегеде (Венгрия) (83 км)
Погода в Капошваре (Венгрия) (94 км)
Погода в Кечкемете (Венгрия) (99 км)
Погода в Шиофоке (Венгрия) (111 км)

Пояснения к столбцам:

Ветер - указаны скорость ветра в м/с - средняя за 10 мин, порывы в срок и между сроками (в фигурных скобках) и направление, откуда дует ветер: С - северный, СВ - северо-восточный, В - восточный, ЮВ - юго-восточный, Ю - южный, ЮЗ - юго-западный, З - западный, СЗ - северо-западный.
Видимость - горизонтальная дальность видимости в метрах или километрах. При видимости от 1 до 10 км при отсутствии осадков обычно наблюдается дымка, при ухудшении видимости до 1 км и менее - туман. В сухую погоду видимость может ухудшаться дымом, пылью или мглою.
Явления - указаны атмосферные явления, наблюдавшиеся в срок или в последний час перед сроком; фигурными скобками обозначены явления, наблюдавшиеся между сроками (за 1-3 часа до срока); квадратными скобками обозначены град или гололедные отложения с указанием их диаметра в мм.
Облачность - указаны через наклонную черту общая и нижняя облачность в баллах и высота нижней границы облаков в метрах; квадратными скобками обозначены формы облаков: Ci - перистые, Cs - перисто-слоистые, Cc - перисто-кучевые, Ac - высококучевые, As - высокослоистые, Sc - слоисто-кучевые, Ns - слоисто-дождевые, Cu - кучевые, Cb - кучево-дождевые. Подробнее классификацию облаков см. в Атласе облаков (PDF).
T - Температура воздуха - температура, измеренная на высоте 2 м над землей.
Td - Температура точки росы - температура, при понижении до которой содержащийся в воздухе водяной пар достигнет насыщения.
f - Относительная влажность воздуха - влажноcть воздуха, измеренная на высоте 2 м над землей.
Te - Эффективная температура - температура, которую ощущает одетый по сезону человек в тени. Характеристика душности погоды. При расчете учитывается влияние влажности воздуха и скорости ветра на теплоощущения человека.
Tes - Эффективная температура на солнце - температура, которую ощущает человек, с поправкой на солнечный нагрев. Характеристика знойности погоды. Зависит от высоты солнца над горизонтом, облачности и скорости ветра. Ночью, в пасмурную погоду, а также при ветре 12 м/с и более поправка равна нулю.
P - Атмосферное давление - приведенное к уровню моря атмосферное давление.
Po - Атмосферное давление - измеренное на уровне метеостанции атмосферное давление.
Tmin - Минимальная температура - минимум температуры воздуха на высоте 2 м над землей.
Tmax - Максимальная температура - максимум температуры воздуха на высоте 2 м над землей.
R - Количество осадков - Количество выпавших осадков за период времени, мм. При наведении курсора мыши на число - период времени, за который выпало указанное количество осадков.
R24 - Количество осадков - Количество выпавших осадков за 24 часа, мм.
S - Снежный покров - Высота снежного покрова, см. При наведении курсора мыши на число - состояние снежного покрова и степень покрытия местности в баллах.